CZ-6A DEB, 54539

Orbit data source: Space-Track

CZ-6A DEB, 54539 is space debris in SSO originally from a launch on Fri, 11 Nov 2022 UTC launched from the Taiyaun Space Center, China (TSC). Debris objects in space refer to the collection of defunct objects orbiting the Earth. Examples of debris include non-operational satellites, rocket bodies, and fragments generated from explosions, collisions, or faulty payload assembly.

Loading next visibility...
Identifier
54539, 2022-151KP
Orbit
SSO
Country
Flag of CNCN / PRC
Related business
Manufacturer
SAST
Mission
Spacecraft
Bus & Motor
Unknown
Mass
Unknown
Launch date (UTC)
2022-11-11 (3 years ago)
Launch vehicle
Unknown
Launch site
Taiyaun Space Center, China (TSC)
Object type
Payload
Rocket body
Debris
Shape & HBR
Unknown shape, 0.3 m
Radar Cross Section
Medium (>0.1 m² and <1 m²)

Expand to show TLE details & history
Last TLE update: 14 hours ago

TLE from 14 hours ago
0 CZ-6A DEB
1 54539U 22151KP  25354.92035880  .00000171  00000-0  12204-3 0  9992
2 54539  98.8369 351.6264 0047495 110.0523 250.5769 14.09144318159542
Epoch: 2025-12-20T22:05Z
TLE epoch observation values (Epoch: 2025-12-20T22:05:19.000Z)
Latitude
0.00003°
Longitude
-69.44301°
Altitude
876.78 km
Speed
7.408 km/s
True Right ascension
23h 26m 30s
True Declination
0° 00' 00"
Sunlit
Object was in daylight at epoch
Visualization orbit readout
Latitude
Unknown
Longitude
Unknown
Altitude
Unknown
Speed
Unknown
Apparent Right ascension
Unknown
Apparent Declination
Unknown
Sunlit
N/A
Visualization observer readout
Local Sidereal Time
10:39:48
Azimuth
Unknown
Elevation
Unknown
Doppler factor
Unknown
Orbital elements
Apogee altitude
893.856 km
Perigee altitude
825.105 km
Semi-major axis
7,237.617 km
Eccentricity
0.00475
Inclination
98.8369°
RAAN
351.6264°
Arg. of periapsis
110.0523°
True anomaly
250.06464°
Mean anomaly
250.5769°
Eccentric anomaly
250.32067°
Mean motion
3.52492 °/min
Orbital period
102.13 mins
BSTAR
0.00012204
Loading maneuver chart data...
Computing Atmospheric mass density...
Loading historical data...
Loading historical data...
Loading historical data...
Loading historical data...
Loading historical data...
Loading historical data...
Loading historical data...

Documentation

Showing up to 5 results
|